User: anonymous   Login
Location: Unspecified
(0.0000°N, 0.0000°E)
Time: 15:39:33
(UTC+00:00)
Language:

UFO 11 (USA 174) - Orbit

View from above orbital plane
View from above orbital plane
View from above satellite
View from above satellite

Ground track
Ground track

The orbit data is extracted from the following two-line orbital elements,

1 28117U 03057A   17193.08446696 0.00000000  00000-0  00000-0 0    01
2 28117   5.0268  35.5724 0003324 288.0659  71.8815  1.00270000    08
Epoch (UTC): 12 July 2017 02:01:37
Eccentricity: 0.0003324
inclination: 5.0268°
perigee height: 35773 km
apogee height: 35801 km
right ascension of ascending node: 35.5724°
argument of perigee: 288.0659°
revolutions per day: 1.00270000
mean anomaly at epoch: 71.8815°
orbit number at epoch: 0

The dashed part of the orbit path shows where the satellite is in the earth's shadow,  

DLR